OpenBCM V1.08-5-g2f4a (Linux)

Packet Radio Mailbox

IZ3LSV

[San Dona' di P. JN]

 Login: GUEST





  
LU9DCE > KEP      05.12.19 17:04l 243 Lines 12051 Bytes #999 (0) @ WW
BID : 4486_LU9DCE
Read: GUEST
Subj: TLE 05 12
Path: IZ3LSV<IQ5KG<IQ2LB<IR2UFV<N3HYM<N7HPX<LU9DCE
Sent: 191205/1600Z 4486@LU9DCE.TOR.BA.ARG.SOAM LinBPQ6.0.19

            __    _  _  ___  ____   ___  ____    ____  ____  ____
           (  )  / )( \/ _ \(    \ / __)(  __)  (  _ \(  _ \/ ___)
           / (_/\) \/ (\__  )) D (( (__  ) _)    ) _ ( ) _ (\___ \
           \____/\____/(___/(____/ \___)(____)  (____/(____/(____/
               ESTACION DE PACKET RADIO - BUENOS AIRES (GF05OM)
                   BOLETINES INFORMATIVOS PROGRAMADOS (BIP)
                  SLACKWARE LINUX - HELLOCODELINUX@GMAIL.COM
+----------------------------------------------------------------------------+
OSCAR 7
1  7530U 74089B   19339.45581356 -.00000028  00000-0  10831-3 0  9992
2  7530 101.7709 305.5245 0012420  20.6450  94.0520 12.53641058 61790
OSCAR 11 (UoSAT 2)
1 14781U 84021B   19339.31364841  .00000074  00000-0  15171-4 0  9991
2 14781  97.6002 355.9064 0009804 118.2208 241.9998 14.83125191923902
OSCAR 19 (LUSAT)
1 20442U 90005G   19339.41816613  .00000014  00000-0  21444-4 0  9995
2 20442  98.6682 281.2704 0012073  14.6572 345.4959 14.32939746560687
EYESAT A
1 22825U 93061C   19339.44827182  .00000005  00000-0  20175-4 0  9993
2 22825  98.9163 332.0708 0007707 219.5341 140.5279 14.30072738366217
ITAMSAT
1 22826U 93061D   19339.48030628 -.00000004  00000-0  16519-4 0  9996
2 22826  98.9104 332.0740 0008397 207.5406 152.5331 14.30407137366424
RADIO ROSTO
1 23439U 94085A   19338.91477466 -.00000044 +00000-0 -48136-4 0  9991
2 23439 064.8142 202.4683 0145752 080.0717 281.6623 11.27569054026972
JAS 2
1 24278U 96046B   19339.32610873  .00000004  00000-0  38150-4 0  9998
2 24278  98.5624 109.9402 0350696 160.1627 201.3550 13.53095128150746
TECHSAT 1B
1 25397U 98043D   19339.41773319 -.00000004  00000-0  17689-4 0  9990
2 25397  98.7069 277.6261 0000205 254.8847 105.2309 14.23675518112021
ISS (ZARYA)
1 25544U 98067A   19339.25270021  .00001078  00000-0  26836-4 0  9999
2 25544  51.6434 233.2025 0006898   2.1501 144.2056 15.50091482201798
PCSAT
1 26931U 01043C   19339.32159053 -.00000046  00000-0  14026-4 0  9990
2 26931  67.0515 285.9463 0007272 264.7118  95.3153 14.30560733949236
SAUDISAT 1C
1 27607U 02058C   19339.18487666 -.00000057  00000-0  12852-4 0  9993
2 27607  64.5554 251.3862 0070654 223.2106 136.3440 14.75593112912043
CUTE-1
1 27844U 03031E   19339.48662769  .00000051  00000-0  42703-4 0  9991
2 27844  98.6839 345.1611 0008835 258.6715 101.3470 14.22209112852420
CUBESAT XI 4
1 27848U 03031J   19339.45691869  .00000034  00000-0  35272-4 0  9999
2 27848  98.6914 345.6646 0008692 272.1234  87.8948 14.21800102852264
MOZHAYETS 4
1 27939U 03042A   19339.42934959  .00000088  00000-0  24398-4 0  9995
2 27939  98.0641 112.1895 0011850 247.9963 111.9991 14.66821924865421
CUBESAT XI 5
1 28895U 05043F   19339.38645704  .00000114  00000-0  30806-4 0  9993
2 28895  97.9825 116.5573 0017056 171.9800 188.1679 14.63717438752308
CUTE-1.7+APD II
1 32785U 08021C   19339.44228030  .00000197  00000-0  26820-4 0  9993
2 32785  97.5589 331.2357 0014429  63.1810 297.0881 14.88384361628932
DELFI C3
1 32789U 08021G   19339.38764542  .00000756  00000-0  54037-4 0  9995
2 32789  97.4449  23.7723 0010605 262.9830  97.0192 15.07303085632522
SEEDS
1 32791U 08021J   19339.50922980  .00000201  00000-0  25648-4 0  9995
2 32791  97.5324 337.4079 0014202  37.6670 322.5540 14.90925245629419
YUBELEINY
1 32953U 08025A   19339.46554181  .00000021  00000-0  75656-4 0  9992
2 32953  82.5066  39.1791 0020284 118.8433 241.4682 12.43092592523403
PRISM (HITOMI)
1 33493U 09002B   19339.40307589  .00000509  00000-0  49932-4 0  9999
2 33493  98.1281 266.8319 0014795 345.7654  14.3148 14.96825215590534
KKS-1 (KISEKI)
1 33499U 09002H   19339.48611603  .00000082  00000-0  20158-4 0  9993
2 33499  98.3345 183.5064 0009790  32.7341 327.4471 14.75485366584266
SWISSCUBE
1 35932U 09051B   19339.44044879  .00000123  00000-0  38750-4 0  9995
2 35932  98.5994 150.5530 0007751  13.1543 346.9854 14.56336440541481
BEESAT
1 35933U 09051C   19339.43338749  .00000106  00000-0  35011-4 0  9995
2 35933  98.6008 152.3697 0006218  28.2421 331.9112 14.56419144541598
ITUPSAT 1
1 35935U 09051E   19339.45181053  .00000083  00000-0  30190-4 0  9990
2 35935  98.6117 152.6122 0008477  23.4661 336.6921 14.55572279541339
XIWANG-1 (HOPE-1)
1 36122U 09072B   19339.45401683 -.00000048  00000-0 -14464-4 0  9995
2 36122 100.0804 333.8984 0007051 316.8779  43.1782 13.16352298479219
TISAT 1
1 36799U 10035E   19339.38601233  .00000434  00000-0  49774-4 0  9990
2 36799  98.1744 137.4103 0011127 247.2766 112.7275 14.91218561510058
JUGNU
1 37839U 11058B   19339.48607891  .00000301  00000-0  18615-4 0  9992
2 37839  19.9625  25.1110 0019117  39.3784  93.7927 14.12666104421293
SRMSAT
1 37841U 11058D   19339.41144056  .00000298  00000-0  18491-4 0  9994
2 37841  19.9721  85.8483 0011718 261.4994 160.5947 14.10644686420685
M-CUBED/EXP-1 PRIME
1 37855U 11061F   19339.45890269  .00001020  00000-0  58610-4 0  9992
2 37855 101.7248 322.2965 0172269 293.4891  64.8298 15.05853589442326
HORYU 2
1 38340U 12025D   19339.35398424  .00000133  00000-0  27433-4 0  9991
2 38340  98.3096  22.8584 0010414 306.9296  53.0958 14.75783076406186
STRAND 1
1 39090U 13009E   19339.48907094  .00000032  00000-0  26417-4 0  9999
2 39090  98.4699 182.4676 0009799 139.1289 221.0633 14.35108263354742
SOMP
1 39134U 13015E   19339.33554858  .00000846  00000-0  47317-4 0  9990
2 39134  64.8616 190.6767 0037645 276.1315  83.5524 15.20549890366385
BEESAT 3
1 39135U 13015F   19339.36455836  .00000500  00000-0  34188-4 0  9999
2 39135  64.8658 211.2938 0041849 279.0649  80.5743 15.17772874365997
BEESAT 2
1 39136U 13015G   19339.07095580  .00000715  00000-0  45497-4 0  9997
2 39136  64.8690 216.5656 0030570 284.6810  75.0927 15.17191578365865
CUBEBUG 1
1 39153U 13018D   19339.52787590  .00000168  00000-0  28826-4 0  9997
2 39153  97.9820  76.7367 0017057  12.8621 347.3023 14.80634331356946
ZACUBE
1 39417U 13066B   19338.73197726 +.00000175 +00000-0 +28305-4 0  9991
2 39417 097.5615 342.7257 0058427 198.3866 161.5237 14.81187273326060
TRITON 1
1 39427U 13066M   19339.46368803  .00000163  00000-0  34112-4 0  9999
2 39427  97.6991 306.5553 0113400 342.6897  17.0455 14.67915430323249
GOMX 1
1 39430U 13066Q   19339.39739091  .00000218  00000-0  47929-4 0  9997
2 39430  97.7689 284.9564 0152408  79.2398 282.5909 14.59318328321356
HUMSAT D
1 39433U 13066T   19339.39628081  .00000529  00000-0  56562-4 0  9994
2 39433  97.5334  19.7823 0032230  94.4126 266.0777 14.92318364328381
CUBEBUG 2
1 39440U 13066AA  19339.44772514  .00000169  00000-0  30627-4 0  9993
2 39440  97.6137 327.9628 0078783 253.2809 105.9745 14.75926299325010
FUNCUBE 1
1 39444U 13066AE  19339.44871371  .00000213  00000-0  32481-4 0  9998
2 39444  97.5579 345.5013 0057793 189.0665 170.9511 14.82021592325070
UWE-3
1 39446U 13066AG  19339.43190677  .00000159  00000-0  27796-4 0  9994
2 39446  97.5870 335.1159 0068923 225.3323 134.2260 14.78460243324342
SPROUT
1 39770U 14029E   19339.55973142  .00000591  00000-0  71228-4 0  9992
2 39770  97.8914  81.8339 0007927 245.2885 114.7477 14.87528819300082
UNISAT 6
1 40012U 14033C   19339.45246510  .00000113  00000-0  24412-4 0  9992
2 40012  97.7321 198.5302 0056940 270.1686  89.2998 14.74040476293691
DUCHIFAT 1
1 40021U 14033M   19339.36936403  .00000267  00000-0  33011-4 0  9994
2 40021  97.9310 264.5635 0012082 205.5911 154.4710 14.90754045296823
QB50P1
1 40025U 14033R   19339.45053448  .00000218  00000-0  29146-4 0  9997
2 40025  97.9088 258.8595 0011450 216.1705 143.8738 14.89032359296587
CHUBUSAT 1
1 40300U 14070C   19339.19229741  .00000569  00000-0  27613-4 0  9992
2 40300  97.3125  48.9556 0019722 175.7116 239.9172 15.22275934281804
NUDT-PHONESAT
1 40900U 15049B   19339.49061216  .00001770  00000-0  77394-4 0  9995
2 40900  97.4362 347.2026 0011558 314.9896 199.0025 15.23357026233503
ZDPS 2A
1 40901U 15049C   19339.37218429  .00000570  00000-0  31367-4 0  9990
2 40901  97.4615 342.7796 0012982 339.5119 127.4814 15.17961829232978
ZDPS 2B
1 40902U 15049D   19339.41980568  .00001084  00000-0  56781-4 0  9994
2 40902  97.4572 340.1895 0012926 336.9373 161.0435 15.17863671232951
XW-2A
1 40903U 15049E   19339.40118468  .00001379  00000-0  33885-4 0  9993
2 40903  97.3167  22.9674 0011728 248.2639 209.9271 15.42388259236406
KAITUO 1A
1 40904U 15049F   19339.43804128  .00000235  00000-0  15902-4 0  9992
2 40904  97.4722 338.6007 0014379 346.1665 150.8062 15.15523889232705
OBJECT G
1 40905U 15049G   19339.44591234  .00000130  00000-0  10640-4 0  9993
2 40905  97.4776 335.9865 0015142 341.2510 176.2555 15.14405844232563
XW-2C
1 40906U 15049H   19339.39846233  .00000696  00000-0  39806-4 0  9992
2 40906  97.4723 338.7267 0014174 337.2995 132.3700 15.15849605232708
XW-2D
1 40907U 15049J   19339.42557975  .00000547  00000-0  31879-4 0  9996
2 40907  97.4712 338.4378 0013485 334.2712 163.8981 15.16052483232728
LILACSAT 2
1 40908U 15049K   19339.41053193  .00000498  00000-0  31094-4 0  9993
2 40908  97.4848 337.0453 0015544 341.9934 157.4020 15.13907814232487
XW-2F
1 40910U 15049M   19339.48941396  .00000914  00000-0  48804-4 0  9994
2 40910  97.4655 340.7673 0013902 325.0655 186.4298 15.17575681232767
XW-2B
1 40911U 15049N   19339.39456544  .00000735  00000-0  41678-4 0  9994
2 40911  97.4717 339.0845 0013355 335.4422 132.2584 15.15982778232616
KAITUO 1B
1 40912U 15049P   19339.38434644  .00000890  00000-0  44547-4 0  9991
2 40912  97.4498 344.5706 0013560 304.3829 162.8488 15.19921913233086
TIANWANG 1C (TW-1C)
1 40926U 15051B   19339.39972374  .00011322  00000-0  14430-3 0  9996
2 40926  97.1147  25.5274 0008913  98.2267 272.8953 15.59428991236574
